Regional Weather Roundup
Issued by NWS Upton, NY

Current Version | Previous Version | Graphics & Text | Print | Product List | Glossary Off
Versions: 1 2 3 4 5 6 7 8 9 10 11 12 13 14 15 16 17 18 19 20 21 22 23 24 25 26 27 28 29 30 31 32 33 34 35 36 37 38 39 40 41 42 43 44 45 46 47 48 49 50
000 ASUS41 KOKX 020005 RWROKX REGIONAL WEATHER ROUNDUP NATIONAL WEATHER SERVICE NEW YORK NY 700 PM EST SUN FEB 01 2015 NOTE: "FAIR" INDICATES FEW OR NO CLOUDS BELOW 12,000 FEET WITH NO SIGNIFICANT WEATHER AND/OR OBSTRUCTIONS TO VISIBILITY. NYZ071-072-176-178-NJZ106-104-020100- NEW YORK CITY METRO AREA CITY SKY/WX TMP DP RH WIND PRES REMARKS CENTRAL PARK CLOUDY 36 19 50 S3 30.14S LAGUARDIA APRT CLOUDY 35 21 56 S7 30.13R WCI 29 KENNEDY INTL CLOUDY 35 21 56 S3 30.15R NEWARK/LIBERTY CLOUDY 35 22 58 E3 30.12F BRNX BOT. GARD N/A N/A N/A N/A E1 30.12F TETERBORO CLOUDY 35 20 54 CALM 30.12S $$ NYZ177-179-078>081-020100- LONG ISLAND NEW YORK CITY SKY/WX TMP DP RH WIND PRES REMARKS FARMINGDALE CLOUDY 32 22 66 S3 30.14R ISLIP CLOUDY 30 20 66 SW5 30.12S WCI 25 SHIRLEY CLOUDY 28 19 69 CALM 30.15R WESTHAMPTON MOCLDY 25 16 68 CALM 30.15S MONTAUK POINT N/A 32 21 64 W3 30.14F $$ NYZ052-065-067-020100- HUDSON VALLEY CITY SKY/WX TMP DP RH WIND PRES REMARKS WHITE PLAINS CLOUDY 32 19 58 CALM 30.10R NEWBURGH CLOUDY 28 21 74 CALM 30.10S MONTGOMERY CLOUDY 29 21 72 CALM 30.08S POUGHKEEPSIE CLOUDY 30 18 60 CALM 30.11R ALBANY MOCLDY 18 3 52 N8 30.15S WCI 8 $$ NJZ001-105-106-008-010-013-015-019>022-104-020100- NEW JERSEY CITY SKY/WX TMP DP RH WIND PRES REMARKS NEWARK/LIBERTY CLOUDY 35 22 58 E3 30.12F TETERBORO CLOUDY 35 20 54 CALM 30.12S CALDWELL CLOUDY 31 23 72 CALM 30.12S MORRISTOWN CLOUDY 32 23 69 CALM 30.11F SOMERVILLE CLOUDY 35 24 64 VRB6 30.09F WCI 30 SUSSEX CLOUDY 30 24 78 CALM 30.09F ANDOVER N/A 29 23 78 CALM 30.08F TRENTON FLURRIES 35 25 66 S6 30.09F WCI 30 MILLVILLE MOCLDY 34 22 61 SE5 30.10F WCI 30 ATLANTIC CITY MOCLDY 34 24 67 SE5 30.10F WCI 30 WRIGHTSTOWN CLOUDY 33 24 70 E6 30.07F WCI 27 TOMS RIVER CLOUDY 34 25 69 S5 30.13F WCI 30 BELMAR CLOUDY 36 18 48 CALM 30.12F $$ PAZ047>061-062-071-020100- EASTERN PENNSYLVANIA CITY SKY/WX TMP DP RH WIND PRES REMARKS PHILADELPHIA CLOUDY 37 23 56 SE3 30.11F ALLENTOWN LGT SNOW 32 28 85 E5 30.07F FOG WCI 27 SCRANTON LGT SNOW 28 25 88 NE5 30.03F FOG WCI 23 $$ CTZ002-004>006-009-010-012-RIZ004-006-007-MAZ004-011-015-020100- SOUTHERN NEW ENGLAND IN CT CITY SKY/WX TMP DP RH WIND PRES REMARKS BRADLEY INTL CLOUDY 28 5 37 N5 30.12S WCI 23 HARTFORD MOCLDY 26 13 57 MISG 30.13S DANBURY MOCLDY 27 17 66 CALM 30.11S WTRBRY/OXFORD PTCLDY 27 12 54 CALM 30.10R BRIDGEPORT MOCLDY 32 25 75 CALM 30.14R MERIDEN PTCLDY 25 17 72 CALM 30.13S NEW HAVEN MOCLDY 27 20 75 CALM 30.13R CHESTER FAIR 30 21 69 CALM 30.12S GROTON PTCLDY 26 19 74 NW3 30.14S WILLIMANTIC MOCLDY 23 12 62 CALM 30.13S IN RI CITY SKY/WX TMP DP RH WIND PRES REMARKS PROVIDENCE MOCLDY 29 9 43 CALM 30.13S BLOCK ISLAND PTCLDY 32 16 51 W6 30.12S WCI 26 WESTERLY PTCLDY 25 13 60 CALM 30.14R IN MA CITY SKY/WX TMP DP RH WIND PRES REMARKS BOSTON NOT AVBL WORCESTER MOCLDY 30 3 31 NE3 30.07S WESTFIELD MOCLDY 27 3 35 N5 30.11F WCI 22 PROVINCETOWN PTCLDY 28 7 40 NW15G22 30.13S WCI 17 NANTUCKET CLOUDY 28 15 58 NW6 30.13F WCI 22 $$ ANZ330-335-338-340-345-350-353-355-020100- COASTAL MARINE OBSERVATIONS STATION/POSITION TIME SKY/WX TEMP WIND PRES VSBY WAVE AIR SEA DIR/SP/G HT/PER (UTC) (F) (DEG/KT/KT) (MB) (MI) (FT/S) NY HARB ENTRANCE 0000 36 39 150/ 2/ 4 1020.4 1/13 4S FIRE IS 2300 37 N/A 2/ 4 20S FIRE ISLAND 2300 41 1021.2 2/ 4 23SW MTP 0000 N/A 2/ 5 HUDSON CANYON NOT AVBL EXECUTION ROCKS 0000 34 32 220/ 4/ 6 N/A WESTERN LI SOUND 2300 35 220/ 6/ 8 N/A 0 CENTRAL LI SOUND 2300 33 34 210/ 2/ 4 N/A 0 EASTERN LI SOUND NOT AVBL ROBBINS REEF 0000 35 80/ 1/ 1 1019.2 $$ >>>>>>>>>>>>>>>>>>>>>>>>>>>> KEY <<<<<<<<<<<<<<<<<<<<<<<<<<< > < > SKY/WX - SKY CONDITION/PRESENT WEATHER < > TMP - TEMPERATURE IN FAHRENHEIT < > DP - DEWPOINT IN FAHRENHEIT < > RH - RELATIVE HUMIDITY IN PERCENT < > WIND - DIRECTION AND SPEED IN MPH < > PRES - MEAN SEA LEVEL PRESSURE IN INCHES OF HG < > WCI - WIND CHILL INDEX < > VSB - VISIBILITY IN MILES < > HX - HEAT INDEX < > TC - TEMPERATURE IN CELSIUS < > VRB - VARIABLE WIND DIRECTION < > < >>>>>>>>>>>>>>>>>>>>>>>>>>>> KEY <<<<<<<<<<<<<<<<<<<<<<<<<<<

USA.gov is the U.S. government's official web portal to all federal, state and local government web resources and services.